User: anonymous   Login
Location: Unspecified
(0.0000°N, 0.0000°E)
Time: 19:03:37
(UTC+00:00)
Language:

Himawari 2 - Orbit

View from above orbital plane
View from above orbital plane
View from above satellite
View from above satellite

Ground track
Ground track

The orbit data is extracted from the following two-line orbital elements,

1 12677U 81076A   17084.95920976 +.00000096 +00000-0 +00000-0 0  9997
2 12677 014.1763 336.6314 0010856 245.9770 359.6035 00.99548699098677
Epoch (UTC): 25 March 2017 23:01:15
Eccentricity: 0.0010856
inclination: 14.1763°
perigee height: 35944 km
apogee height: 36036 km
right ascension of ascending node: 336.6314°
argument of perigee: 245.9770°
revolutions per day: 0.99548699
mean anomaly at epoch: 359.6035°
orbit number at epoch: 9867

The dashed part of the orbit path shows where the satellite is in the earth's shadow,  

DLR